Live-Position
3D-Globus wird geladen...
Über Starlink 4302
Group: 3 satellites
Beschreibung wird geladen...
Nächste Überflüge
Passes for default location (London). Set your location on the main map for personalized predictions.
Höhenverlauf
Loading altitude history...
No altitude history available
Zweizeiliger Elementsatz
1 53481U 22099S 26122.26727138 .00054039 00000-0 22648-2 0 9997
2 53481 97.6053 243.6456 0001623 84.5125 275.6296 15.23321114204084
Epoch: 2. Mai 2026 •
Age: 14 hours
Aktueller Status
Höhe 519.6 km
Geschwindigkeit 7.60 km/s
Subsatellitenpunkt -59.53°S,
91.44°E
Startdatum 12. Aug. 2022
Alter 3.7 years
Typ internet
Startgruppe
Falcon 9 •
Group 3-3 •
39 satellites
Starlink 4415
53465
Starlink 4398 53466
Starlink 4394 53467
Starlink 4400 53468
Starlink 4399 53469
Starlink 4393 53470
Starlink 4447 53472
Starlink 4383 53473
Starlink 4445 53474
Starlink 4389 53475
Starlink 4378 53476
Starlink 4412 53477
Starlink 4433 53478
Starlink 4436 53479
Starlink 4442 53480
Starlink 4360 53482
Starlink 4426 53484
Starlink 4430 53485
Starlink 4431 53486
Starlink 4432 53487
...and 18 more
Technische Details
Klassifizierung Payload
Masse 300.00 kg
Trockenmasse 275.00 kg
Gesamtmasse 300.00 kg
Länge 0.20 m
Durchmesser 2.80 m
Spannweite 9.00 m
Form Box + pan
Hersteller SPXS
Bus-Typ Starlink
Phasenstatus In Orbit
Besitzer/Staat SPXS/US
Most Searched
Loading...